Starlink 32310

operational
NORAD ID: 61662 Int'l Des: 2024-193 Owner: SPXS Country: US Constellation: starlink
LEOCIRCULAR

Starlink 32310について

説明を読み込み中...

リアルタイム位置

3D地球を読み込み中...

次回通過

高度履歴

Altitude vs Time

uPlot chart will show altitude changes over time

軌道要素

1 61662U 24193B 25259.08124386 .00000019 00000-0 12757-4 0 9991
2 61662 53.1600 182.0225 0001269 77.3197 282.7946 15.30189229 49797
Epoch: Sep 16, 2025 • Age: 11 hours

現在のステータス

高度 480.9 km
速度 7.63 km/s
衛星直下点 52.82°N, 84.76°E
打ち上げ日 Oct 26, 2024
運用期間 0.8 years
タイプ internet

技術仕様

分類 Payload
質量 730.00 kg
乾燥質量 700.00 kg
総質量 730.00 kg
長さ 0.30 m
直径 4.10 m
スパン 29.00 m
形状 Box + pan
製造者 SPXS
バスタイプ Starlink V2M
フェーズステータス In Orbit
所有者/国 SPXS/US

大規模コンステレーション

Loading constellations...